Kosmos-2558

operational
NORAD ID: 53323 Int'l Des: 2022-089 Owner: TSVS Country: RU
LEOCIRCULARRETROGRADESSO

Über Kosmos-2558

Beschreibung wird geladen...

Live-Position

3D-Globus wird geladen...

Nächste Überflüge

Höhenverlauf

Altitude vs Time

uPlot chart will show altitude changes over time

Zweizeiliger Elementsatz

1 53323U 22089A 26061.13499487 .00065837 00000-0 85405-3 0 9991
2 53323 97.2263 162.2909 0001722 82.6200 277.5252 15.58635697201071
Epoch: 2. März 2026 • Age: 27 hours

Aktueller Status

Höhe 412.2 km
Geschwindigkeit 7.66 km/s
Subsatellitenpunkt -51.16°S, 123.26°E
Startdatum 1. Aug. 2022
Alter 3.5 years
Typ other

Technische Details

Klassifizierung Payload
Masse 400.00 kg
Trockenmasse 400.00 kg
Gesamtmasse 547.00 kg
Länge 3.00 m
Durchmesser 1.30 m
Spannweite 3.00 m
Form Cyl + 2 Pan
Hersteller NPOLO
Bus-Typ Karat-200
Phasenstatus In Orbit
Besitzer/Staat TSVS/RU

Große Konstellationen

Loading constellations...